Wind_Speed
26 26 29 34 38 37 36 37 34 36 48 57 58 58 52 56 58 52 43 38 44 39 41 38 43 46 44 42 39 41 42 39 35 30 26 28 29 27 27 26 25 24 22
27 28 25 22 27 39 40 41 36 35 33 36 41 43 45 44 50 48 49 47 44 43 44 38 35 39 39 44 41 42 41 39 35 32 29 30 32 31 31 29 25 25 23
26 28 28 28 25 22 24 32 39 43 42 42 40 43 45 46 45 44 46 44 45 45 44 45 48 36 39 47 42 51 42 39 38 33 33 36 32 33 31 30 29 27 23
24 26 27 27 27 28 29 30 30 31 38 43 46 44 46 45 43 41 38 40 52 44 45 45 44 40 41 40 42 45 53 47 42 37 38 38 38 35 29 32 27 24 22
14 17 20 23 25 27 31 34 36 42 43 39 43 48 48 49 47 45 46 43 48 53 50 50 47 41 51 40 42 46 49 51 49 41 37 35 40 28 31 27 27 26 23
20 24 27 27 26 29 32 35 42 43 47 49 39 39 43 44 48 38 45 44 47 49 50 47 51 44 40 47 41 44 46 49 49 42 34 37 28 26 26 24 24 24 22
23 26 31 31 28 29 29 42 46 41 43 53 50 47 39 39 38 31 38 35 47 49 48 43 39 45 43 42 41 36 39 38 39 32 34 29 24 21 22 23 26 22 22
23 27 30 32 31 31 34 43 28 27 29 31 44 50 46 41 37 36 35 27 47 41 35 41 38 38 43 45 42 44 41 37 33 34 33 29 28 24 23 22 21 25 25
23 28 29 35 33 33 34 35 27 25 21 22 23 33 39 37 35 33 35 37 31 36 32 40 36 34 35 41 41 47 41 34 35 38 33 34 31 28 28 29 29 24 21
24 23 30 33 34 33 33 31 26 22 18 19 22 28 33 38 30 33 32 29 30 33 33 35 40 43 42 40 47 42 36 31 35 41 38 36 33 32 31 29 25 22 22
23 28 33 33 32 31 32 28 24 20 16 18 23 26 28 28 30 34 29 24 20 25 28 33 29 35 43 45 39 40 41 31 44 40 33 27 27 26 25 25 25 23 22
26 26 34 34 31 30 31 27 21 15 11 13 18 21 23 25 23 21 18 18 23 23 25 36 43 36 38 44 37 35 35 41 35 26 27 26 25 25 25 25 23 24 22
31 34 35 31 27 28 28 25 18 12 6 8 15 17 16 15 15 20 29 27 23 28 33 34 40 38 32 35 37 40 43 36 31 32 28 25 25 24 25 25 25 24 22
30 26 26 27 25 26 26 23 17 11 6 2 7 9 11 14 19 23 24 24 28 29 32 35 35 33 35 40 45 42 38 35 33 30 28 27 26 27 27 26 24 23 23
26 24 25 26 25 24 23 22 15 9 4 1 4 6 9 12 15 17 20 26 30 31 29 28 32 35 39 41 42 40 37 35 32 32 33 31 29 29 29 25 25 24 22
25 24 24 24 24 23 22 20 15 9 3 2 6 8 8 11 14 20 24 24 24 23 23 24 27 32 41 43 39 35 34 32 31 32 29 31 31 27 23 26 26 22 19
28 31 28 27 31 32 28 21 15 9 7 7 10 10 10 11 17 20 23 23 24 25 27 30 33 41 39 35 32 29 28 28 29 30 31 28 27 26 27 26 24 22 20
29 30 33 34 32 30 23 20 15 9 9 6 10 13 15 15 15 18 20 21 23 26 27 32 32 28 26 26 26 27 28 28 28 28 30 30 27 26 27 25 24 21 19
31 31 32 32 28 21 18 16 15 11 12 11 8 12 18 22 22 22 24 24 25 27 29 29 28 27 27 28 29 28 28 28 28 28 28 27 26 26 25 24 22 20 18
31 30 31 31 22 18 16 19 18 14 14 16 14 13 18 23 25 27 27 27 26 25 25 25 26 27 28 28 28 29 31 30 29 28 27 26 26 25 25 22 20 19 20
31 30 29 29 22 17 16 19 20 18 16 20 21 19 20 22 21 20 22 21 21 21 22 23 23 25 27 29 31 31 30 29 28 29 28 27 27 26 22 22 22 22 23
28 27 27 28 23 19 19 19 20 20 18 22 24 24 24 25 25 24 23 22 20 21 22 23 24 25 26 26 27 28 29 29 28 27 27 28 26 24 25 24 23 23 23
26 25 24 23 22 19 20 22 22 23 23 23 26 25 27 28 27 26 24 22 21 22 23 25 27 27 28 28 28 28 26 25 25 26 27 26 25 26 25 24 23 23 22
24 24 23 22 20 15 15 19 22 26 27 26 29 28 27 28 28 27 25 24 25 27 27 26 26 26 27 28 28 28 29 30 29 28 28 28 27 27 26 24 24 23 23
24 23 23 22 18 15 12 13 15 21 25 28 31 29 27 26 27 27 28 28 27 27 27 28 28 28 28 28 28 27 28 30 31 31 30 29 28 27 25 25 25 24 23
23 23 22 22 19 15 10 8 9 12 18 26 30 30 28 28 29 29 28 28 28 28 29 28 28 28 27 27 28 29 30 30 30 29 28 28 27 26 24 24 24 23 22
Wind_Direction
283 291 289 274 269 265 262 265 269 270 260 259 262 266 265 267 266 258 252 244 245 245 238 247 253 253 242 234 228 228 230 232 234 228 220 228 235 233 231 239 239 238 242
282 291 292 294 276 263 261 261 263 261 257 253 255 257 257 255 258 254 254 253 246 239 240 243 245 253 251 247 231 229 231 232 234 229 227 226 225 227 227 231 231 233 234
285 294 298 296 291 289 276 266 264 262 260 252 249 251 252 252 251 250 250 245 250 242 239 242 239 242 248 248 254 236 226 227 229 226 228 231 221 220 223 230 228 230 230
294 300 299 299 297 289 283 275 273 273 265 258 253 252 249 247 247 250 246 242 234 242 234 236 243 237 240 247 248 243 234 220 227 225 220 228 213 218 221 225 227 228 229
309 323 310 300 301 302 288 280 273 270 266 264 255 252 250 250 254 253 253 242 234 232 240 235 234 234 246 246 252 241 234 218 219 225 222 232 225 208 220 223 220 219 225
338 332 323 317 308 301 301 291 280 276 268 257 256 251 248 247 253 249 249 234 238 231 222 234 230 233 235 237 240 243 240 220 226 223 229 232 201 210 217 214 219 228 231
330 329 330 326 319 311 304 303 294 281 269 254 248 252 252 245 246 242 232 234 230 234 238 233 236 234 236 231 239 233 237 215 215 229 222 196 199 202 206 217 221 220 225
323 326 327 330 327 323 310 316 303 285 280 268 244 242 245 244 240 240 239 244 232 241 231 234 235 226 225 228 224 223 214 205 218 212 189 189 188 188 203 209 216 223 229
321 325 330 332 334 329 326 324 316 311 287 267 240 230 239 233 235 238 239 237 222 230 214 228 217 214 219 225 220 196 201 213 207 190 196 192 188 189 198 212 218 225 233
327 328 330 329 334 334 333 332 320 312 278 249 239 227 229 232 227 231 226 227 236 216 219 231 224 226 228 220 202 207 205 204 207 192 193 193 198 201 206 212 216 225 231
316 319 329 330 335 336 339 337 325 314 286 248 228 225 228 229 230 222 214 223 230 227 228 214 217 197 192 201 209 208 203 218 202 192 196 201 209 216 218 216 219 225 232
311 312 324 323 330 338 342 342 331 326 293 250 223 202 193 190 188 184 195 214 220 214 211 208 200 200 194 198 199 209 205 194 186 189 192 200 208 212 215 219 222 228 234
299 308 309 317 325 336 340 342 332 340 313 231 201 181 174 172 179 205 199 213 213 206 211 200 191 198 217 211 204 193 189 182 184 192 197 202 207 210 216 219 232 230 233
311 308 306 312 319 327 334 342 331 337 353 254 189 178 191 195 193 197 196 195 197 202 209 213 211 204 193 191 186 181 178 183 191 195 197 201 210 216 217 229 227 228 240
320 314 306 307 312 317 326 334 331 320 348 285 202 211 207 198 191 188 185 182 181 182 184 187 189 193 196 197 188 180 184 192 196 199 205 213 210 217 223 227 218 238 243
336 330 320 313 313 316 319 319 327 302 293 189 159 176 196 195 181 174 177 180 181 184 191 200 201 202 194 188 183 184 191 200 209 211 205 208 219 220 225 215 228 232 243
333 329 325 313 305 303 298 302 314 293 266 193 147 142 153 167 184 192 191 198 199 201 199 192 188 186 181 183 185 191 205 207 205 205 213 215 216 223 216 223 230 235 245
334 328 325 320 312 303 289 276 285 283 260 227 176 156 157 155 166 174 181 184 189 183 187 185 180 177 181 184 191 198 202 203 204 205 208 217 217 217 218 223 229 245 242
331 331 329 325 316 306 279 256 256 253 241 240 219 184 174 171 173 177 173 170 172 177 178 175 174 180 182 186 193 198 201 199 204 211 213 211 210 211 217 223 239 238 237
324 327 328 330 315 307 271 258 240 233 228 224 219 202 191 187 182 179 175 173 174 175 179 180 182 185 189 193 196 198 201 203 207 209 206 207 212 216 223 233 233 233 241
317 322 325 327 308 290 285 256 247 228 229 216 216 212 206 198 196 190 186 181 181 185 186 188 192 196 197 198 200 203 204 208 209 206 206 211 216 223 232 230 228 235 242
316 318 320 324 313 281 265 256 244 236 237 223 212 210 210 208 201 201 195 190 191 194 193 197 199 200 203 206 208 208 209 209 207 207 212 217 222 227 227 226 233 239 242
319 317 319 323 318 292 268 251 241 238 241 229 213 208 212 211 209 205 202 192 195 201 204 206 204 203 202 206 208 209 211 212 212 215 219 223 225 226 227 231 235 238 244
323 319 319 320 315 303 291 271 248 234 232 223 211 208 215 215 212 206 205 202 205 208 205 207 208 210 208 210 211 210 209 208 211 215 219 221 222 225 229 229 234 240 246
326 322 318 318 309 300 298 284 251 231 221 213 207 206 212 212 206 203 202 207 213 214 211 209 210 211 211 211 211 212 214 215 217 218 218 220 222 227 227 229 234 240 247
315 323 318 314 311 295 288 275 258 229 218 211 207 204 206 206 202 198 202 209 213 212 212 212 212 212 211 212 211 212 214 216 218 218 219 220 224 226 229 234 239 243 248
Height
2965 2963 2960 2958 2956 2955 2955 2957 2955 2958 2957 2961 2965 2968 2970 2975 2981 2988 2990 2992 2996 2999 3004 3008 3010 3011 3020 3022 3031 3037 3044 3050 3057 3062 3067 3070 3073 3077 3081 3085 3088 3091 3094
2957 2955 2954 2951 2946 2945 2946 2948 2945 2948 2946 2950 2953 2956 2958 2961 2965 2970 2976 2980 2986 2989 2995 2998 3003 3007 3012 3015 3020 3026 3037 3043 3049 3054 3058 3061 3066 3070 3075 3080 3082 3085 3089
2951 2949 2947 2944 2940 2937 2937 2936 2936 2936 2937 2939 2940 2943 2946 2948 2950 2956 2961 2968 2971 2978 2982 2987 2994 3000 3005 3007 3013 3018 3025 3032 3040 3045 3048 3052 3058 3063 3068 3073 3075 3079 3083
2945 2942 2939 2935 2932 2929 2927 2927 2926 2924 2923 2924 2926 2929 2931 2935 2938 2942 2947 2952 2957 2962 2970 2977 2982 2989 2996 3000 3004 3008 3013 3020 3029 3036 3040 3043 3049 3055 3062 3066 3070 3074 3077
2939 2936 2933 2929 2925 2920 2917 2915 2913 2911 2910 2910 2910 2913 2916 2919 2924 2929 2934 2939 2942 2948 2958 2965 2971 2977 2984 2990 2994 2999 3003 3009 3018 3025 3031 3035 3041 3048 3056 3059 3065 3068 3070
2933 2929 2926 2922 2918 2914 2910 2905 2899 2897 2896 2896 2897 2898 2901 2906 2912 2916 2920 2925 2927 2935 2943 2950 2957 2964 2973 2977 2983 2990 2996 3000 3009 3017 3023 3029 3036 3045 3052 3055 3059 3063 3066
2928 2924 2919 2914 2910 2906 2901 2894 2884 2878 2876 2876 2881 2886 2889 2894 2900 2905 2908 2914 2920 2925 2931 2939 2943 2951 2959 2968 2975 2982 2990 2997 3006 3011 3017 3023 3033 3040 3047 3051 3054 3059 3062
2923 2919 2914 2909 2903 2896 2890 2880 2872 2867 2862 2857 2860 2870 2878 2882 2890 2896 2901 2902 2908 2909 2917 2925 2932 2941 2949 2958 2966 2974 2981 2991 2998 3004 3011 3019 3025 3032 3041 3046 3050 3053 3055
2919 2914 2909 2903 2897 2890 2882 2872 2864 2858 2854 2852 2854 2860 2868 2875 2882 2886 2892 2895 2898 2905 2910 2916 2924 2932 2941 2950 2956 2964 2973 2983 2991 2999 3006 3012 3018 3025 3032 3038 3043 3048 3051
2914 2910 2905 2899 2893 2886 2877 2868 2861 2855 2852 2851 2853 2856 2861 2867 2873 2880 2884 2889 2893 2898 2905 2910 2918 2926 2933 2942 2951 2958 2967 2976 2985 2991 2999 3005 3012 3020 3027 3033 3038 3043 3045
2909 2905 2901 2895 2889 2881 2873 2865 2859 2853 2850 2849 2850 2853 2857 2861 2865 2872 2877 2883 2888 2895 2900 2905 2911 2917 2928 2938 2947 2955 2964 2971 2979 2987 2995 3004 3011 3017 3023 3029 3033 3037 3039
2905 2901 2897 2891 2885 2879 2871 2864 2858 2853 2849 2848 2848 2850 2853 2856 2860 2866 2873 2879 2886 2891 2895 2902 2909 2917 2926 2935 2943 2951 2958 2966 2974 2984 2991 2998 3006 3013 3020 3024 3028 3030 3033
2900 2896 2891 2887 2882 2877 2870 2864 2859 2854 2850 2848 2849 2849 2851 2855 2860 2867 2872 2877 2882 2889 2896 2903 2909 2916 2924 2931 2939 2945 2953 2961 2970 2980 2987 2995 3003 3009 3013 3018 3022 3025 3027
2892 2889 2886 2882 2879 2875 2870 2864 2859 2854 2851 2850 2850 2851 2853 2856 2860 2863 2867 2873 2878 2884 2891 2898 2906 2912 2919 2927 2933 2940 2949 2959 2969 2975 2983 2990 2997 3003 3007 3012 3016 3019 3021
2887 2883 2880 2877 2875 2872 2868 2864 2859 2855 2852 2850 2850 2852 2854 2856 2859 2863 2867 2871 2875 2883 2890 2896 2902 2909 2917 2924 2932 2939 2948 2958 2965 2972 2979 2985 2993 2998 3003 3006 3009 3013 3015
2882 2879 2875 2872 2870 2868 2865 2862 2859 2855 2852 2851 2850 2851 2854 2857 2861 2864 2869 2873 2879 2885 2890 2896 2902 2908 2917 2924 2931 2938 2947 2955 2961 2968 2974 2981 2988 2992 2996 3000 3004 3007 3010
2879 2875 2870 2867 2864 2862 2861 2860 2858 2855 2853 2852 2851 2852 2854 2857 2860 2865 2869 2873 2879 2884 2888 2894 2902 2910 2916 2923 2930 2938 2946 2952 2958 2965 2971 2977 2982 2986 2990 2995 2999 3001 3003
2877 2872 2866 2860 2855 2852 2852 2854 2855 2854 2853 2853 2853 2853 2855 2857 2860 2863 2867 2872 2876 2882 2889 2896 2904 2909 2915 2922 2930 2937 2943 2948 2953 2961 2967 2972 2976 2981 2985 2989 2993 2994 2996
2873 2868 2862 2855 2850 2847 2846 2848 2850 2852 2853 2853 2855 2856 2857 2859 2862 2866 2869 2874 2880 2886 2891 2896 2901 2907 2914 2921 2928 2934 2940 2946 2952 2957 2962 2967 2972 2976 2980 2983 2986 2988 2990
2868 2863 2857 2852 2847 2844 2844 2845 2846 2849 2850 2852 2854 2857 2859 2861 2862 2866 2871 2877 2882 2887 2893 2896 2900 2906 2913 2919 2925 2930 2936 2941 2947 2952 2957 2962 2966 2971 2975 2977 2980 2983 2987
2862 2858 2853 2848 2844 2842 2841 2842 2843 2845 2847 2849 2852 2856 2860 2863 2866 2870 2874 2877 2882 2887 2891 2896 2901 2905 2911 2916 2922 2927 2932 2937 2942 2947 2951 2956 2961 2965 2968 2972 2976 2979 2981
2857 2853 2848 2843 2839 2837 2837 2838 2839 2841 2843 2845 2849 2852 2856 2860 2865 2870 2874 2878 2882 2886 2890 2894 2899 2904 2909 2914 2919 2923 2927 2932 2936 2941 2947 2952 2955 2959 2964 2967 2970 2973 2974
2853 2849 2844 2840 2835 2833 2832 2833 2834 2836 2838 2841 2844 2847 2851 2856 2862 2867 2871 2875 2879 2883 2887 2892 2896 2900 2903 2908 2913 2918 2923 2928 2934 2938 2942 2946 2950 2955 2959 2962 2964 2966 2968
2850 2845 2841 2837 2833 2829 2827 2826 2826 2828 2831 2834 2838 2842 2846 2851 2856 2862 2867 2871 2875 2879 2883 2887 2892 2896 2900 2904 2909 2914 2919 2923 2928 2932 2936 2940 2945 2949 2952 2955 2958 2959 2960
2847 2842 2839 2835 2831 2828 2824 2822 2821 2822 2824 2828 2832 2836 2841 2845 2850 2856 2862 2866 2870 2874 2879 2883 2888 2892 2896 2901 2906 2910 2914 2918 2922 2927 2931 2935 2939 2943 2946 2949 2951 2953 2954
2842 2839 2835 2832 2828 2826 2823 2820 2819 2819 2821 2823 2827 2831 2836 2841 2846 2851 2856 2861 2865 2870 2874 2879 2883 2887 2892 2896 2900 2903 2908 2912 2917 2922 2926 2929 2933 2937 2939 2942 2944 2946 2947